Weatherford, Texas, United States (76085)
Lat: 32.76N, Lon: 97.8W
Wx Zone: TXZ117
Local Info
Past Weather Observations for Thursday, May 21, 2015

NOTE: This archive is for the closest National Weather Service station to Weatherford. Information may differ from the station used for current weather conditions.

Click here for Long-term Archive

Time Weather Temperature Dewpoint Humidity Pressure Winds Precip Visibility
23:53
Overcast
63°F / 17°C 57°F / 14°C 83% 30.12 in
(1020 mb)
SE 3.5 mph
(SE 6 kph)
- 10SM
23:43
Overcast
63°F / 17°C 57°F / 14°C 83% 30.12 in
(1020 mb)
Calm - 10SM
22:53
Overcast
61°F / 16°C 55°F / 13°C 83% 30.12 in
(1020 mb)
SE 4.6 mph
(SE 7 kph)
- 10SM
22:50
Overcast
61°F / 16°C 55°F / 13°C 83% 30.12 in
(1020 mb)
ESE 4.6 mph
(ESE 7 kph)
- 10SM
22:01
Overcast
63°F / 17°C 55°F / 13°C 77% 30.15 in
(1021 mb)
ESE 8.1 mph
(ESE 13 kph)
- 10SM
21:53
Overcast
63°F / 17°C 55°F / 13°C 77% 30.15 in
(1021 mb)
ESE 8.1 mph
(ESE 13 kph)
- 10SM
20:53
Overcast
63°F / 17°C 55°F / 13°C 77% 30.15 in
(1021 mb)
NE 5.8 mph
(NE 9 kph)
- 10SM
19:53
Overcast
63°F / 17°C 55°F / 13°C 77% 30.12 in
(1020 mb)
NE 5.8 mph
(NE 9 kph)
- 10SM
18:53
Overcast
63°F / 17°C 55°F / 13°C 77% 30.15 in
(1021 mb)
N 4.6 mph
(N 7 kph)
- 10SM
17:53
Overcast
63°F / 17°C 54°F / 12°C 73% 30.12 in
(1020 mb)
NE 6.9 mph
(NE 11 kph)
- 10SM
16:53
Overcast
64°F / 18°C 54°F / 12°C 68% 30.15 in
(1021 mb)
ENE 6.9 mph
(ENE 11 kph)
- 10SM
15:53
Overcast
64°F / 18°C 54°F / 12°C 68% 30.15 in
(1021 mb)
NE 5.8 mph
(NE 9 kph)
- 10SM
14:53
Overcast
64°F / 18°C 54°F / 12°C 68% 30.18 in
(1022 mb)
N 9.2 mph
(N 15 kph)
- 10SM
13:53
Overcast
63°F / 17°C 52°F / 11°C 68% 30.18 in
(1022 mb)
NE 10.4 mph
(NE 17 kph)
- 10SM
13:23
Overcast
63°F / 17°C 52°F / 11°C 68% 30.21 in
(1023 mb)
NNE 8.1 mph
(NNE 13 kph)
- 10SM
12:53
Overcast
61°F / 16°C 52°F / 11°C 72% 30.21 in
(1023 mb)
NE 11.5 mph
(NE 19 kph)
- 10SM
11:53
Overcast
59°F / 15°C 52°F / 11°C 77% 30.21 in
(1023 mb)
NE 11.5 mph
(NE 19 kph)
- 10SM
10:53
Overcast
57°F / 14°C 50°F / 10°C 77% 30.24 in
(1024 mb)
NE 12.7 mph
(NE 20 kph)
- 10SM
09:53
Overcast
57°F / 14°C 50°F / 10°C 77% 30.24 in
(1024 mb)
NE 13.8 mph
(NE 22 kph)
- 10SM
09:09
Overcast
57°F / 14°C 50°F / 10°C 77% 30.21 in
(1023 mb)
NE 13.8 mph
(NE 22 kph)
- 10SM
08:53
Overcast
57°F / 14°C 50°F / 10°C 77% 30.21 in
(1023 mb)
N 17.3 mph
(N 28 kph)
- 10SM
07:53
Overcast
55°F / 13°C 50°F / 10°C 82% 30.21 in
(1023 mb)
NNE 13.8 mph
(NNE 22 kph)
- 10SM
07:44
Overcast
55°F / 13°C 52°F / 11°C 88% 30.21 in
(1023 mb)
N 10.4 mph
(N 17 kph)
- 10SM
06:53
Overcast
55°F / 13°C 52°F / 11°C 88% 30.21 in
(1023 mb)
N 11.5 mph
(N 19 kph)
0.00 in
(0.00 mm)
10SM
06:39
Overcast
55°F / 13°C 52°F / 11°C 88% 30.21 in
(1023 mb)
N 9.2 mph
(N 15 kph)
0.00 in
(0.00 mm)
10SM
06:09
Overcast
Light Rain
55°F / 13°C 54°F / 12°C 94% 30.18 in
(1022 mb)
N 9.2 mph
(N 15 kph)
0.00 in
(0.00 mm)
10SM
05:53
Overcast
Light Rain
54°F / 12°C 52°F / 11°C 94% 30.18 in
(1022 mb)
N 9.2 mph
(N 15 kph)
0.05 in
(1.27 mm)
10SM
05:35
Overcast
Light Rain
55°F / 13°C 54°F / 12°C 94% 30.15 in
(1021 mb)
N 11.5 mph
(N 19 kph)
0.05 in
(1.27 mm)
10SM
05:11
Overcast
Light Rain
55°F / 13°C 54°F / 12°C 94% 30.15 in
(1021 mb)
N 11.5 mph
(N 19 kph)
0.04 in
(1.02 mm)
8SM
04:53
Overcast
Rain
55°F / 13°C 54°F / 12°C 94% 30.15 in
(1021 mb)
N 9.2 mph
(N 15 kph)
0.18 in
(4.57 mm)
5SM
04:40
Overcast
Rain
55°F / 13°C 54°F / 12°C 94% 30.15 in
(1021 mb)
N 12.7 mph
(N 20 kph)
0.15 in
(3.81 mm)
6SM
04:33
Overcast
Thunder Storms
55°F / 13°C 54°F / 12°C 94% 30.15 in
(1021 mb)
N 15 mph
(N 24 kph)
0.14 in
(3.56 mm)
7SM
04:16
Overcast
Thunder Storms
55°F / 13°C 54°F / 12°C 94% 30.18 in
(1022 mb)
N 8.1 mph
(N 13 kph)
0.12 in
(3.05 mm)
4SM
04:07
Overcast
Thunder Storms
55°F / 13°C 54°F / 12°C 94% 30.18 in
(1022 mb)
NW 6.9 mph
(NW 11 kph)
0.11 in
(2.79 mm)
2SM
04:04
Overcast
Thunder Storms
55°F / 13°C 54°F / 12°C 94% 30.18 in
(1022 mb)
NW 9.2 mph
(NW 15 kph)
0.10 in
(2.54 mm)
1 3/4SM
03:53
Overcast
Thunder Storms
55°F / 13°C 54°F / 12°C 94% 30.12 in
(1020 mb)
NNE 15 mph
(NNE 24 kph)
0.43 in
(10.92 mm)
1SM
03:47
Overcast
Thunder Storms
55°F / 13°C 54°F / 12°C 94% 30.15 in
(1021 mb)
NNE 15 mph
(NNE 24 kph)
0.32 in
(8.13 mm)
1 1/2SM
03:38
Overcast
Thunder Storms
55°F / 13°C 54°F / 12°C 94% 30.15 in
(1021 mb)
N 15 mph
(N 24 kph)
0.10 in
(2.54 mm)
5SM
03:24
Overcast
Thunder Storms
55°F / 13°C 54°F / 12°C 94% 30.15 in
(1021 mb)
NW 13.8 mph
(NW 22 kph)
0.07 in
(1.78 mm)
6SM
03:20
Overcast
Thunder Storms
57°F / 14°C 54°F / 12°C 88% 30.18 in
(1022 mb)
NW 16.1 mph
(NW 26 kph)
0.06 in
(1.52 mm)
6SM
03:10
Overcast
Thunder Storms
57°F / 14°C 54°F / 12°C 88% 30.12 in
(1020 mb)
NW 11.5 mph
(NW 19 kph)
0.03 in
(0.76 mm)
7SM
02:53
Overcast
Thunder Storms
57°F / 14°C 54°F / 12°C 88% 30.12 in
(1020 mb)
N 11.5 mph
(N 19 kph)
0.00 in
(0.00 mm)
9SM
02:46
Overcast
Light Rain
57°F / 14°C 54°F / 12°C 88% 30.12 in
(1020 mb)
NNE 15 mph
(NNE 24 kph)
0.00 in
(0.00 mm)
8SM
01:53
Overcast
59°F / 15°C 54°F / 12°C 82% 30.12 in
(1020 mb)
N 11.5 mph
(N 19 kph)
- 10SM
00:53
Overcast
61°F / 16°C 54°F / 12°C 77% 30.12 in
(1020 mb)
NNE 11.5 mph
(NNE 19 kph)
- 10SM
Time Weather Temperature Dewpoint Humidity Pressure Winds Precip Visibility


Weather for websites

WeatherForYou.com, LLC is not responsible for any damages or problems caused by this service. Current weather conditions are obtained from the closest station including government and personal stations which may have varying degrees of accuracy. Weather forecasts are derived from the NOAA NDFD. Like all things, this site belongs to Jesus Christ... He just trusts us to maintain it. If you have any questions or comments email webmaster@weatherforyou.com

Copyright © 2015, WeatherForYou.com LLC. All rights reserved.